This is the latest recevied weather packets stored in our database for station/object KM8V-8. If no packets are shown the sender has not sent any weather packets the latest 10 day(s).
| Time | Temp. | Humidity | Pressure | Rain* | Wind** | Luminosity | Snow |
|---|---|---|---|---|---|---|---|
| 1778182518 | 13.33° C | 55% | 1011 hPa | 0 mm | - | 219 W/m² | - |
| 1778182218 | 13.33° C | 53% | 1011 hPa | 0 mm | - | 308 W/m² | - |
| 1778181918 | 13.33° C | 55% | 1011.1 hPa | 0 mm | - | 492 W/m² | - |
| 1778181618 | 13.33° C | 55% | 1011 hPa | 0 mm | - | 291 W/m² | - |
| 1778181318 | 13.33° C | 55% | 1011 hPa | 0 mm | - | 303 W/m² | - |
| 1778181018 | 13.89° C | 53% | 1011.1 hPa | 0 mm | - | 270 W/m² | - |
| 1778180718 | 13.89° C | 55% | 1011.1 hPa | 0 mm | - | 527 W/m² | - |
| 1778180418 | 13.89° C | 55% | 1011.1 hPa | 0 mm | - | 969 W/m² | - |
| 1778180118 | 13.33° C | 55% | 1011.2 hPa | 0 mm | - | 754 W/m² | - |
| 1778179819 | 13.89° C | 54% | 1011.2 hPa | 0 mm | - | 236 W/m² | - |
| 1778179519 | 13.89° C | 55% | 1011.2 hPa | 0 mm | - | 596 W/m² | - |
| 1778179219 | 13.33° C | 57% | 1011.2 hPa | 0 mm | - | 736 W/m² | - |
| 1778178919 | 13.33° C | 56% | 1011.2 hPa | 0 mm | - | 360 W/m² | - |
| 1778178619 | 13.89° C | 55% | 1011.2 hPa | 0 mm | - | 233 W/m² | - |
| 1778178318 | 13.33° C | 55% | 1011.3 hPa | 0 mm | - | 858 W/m² | - |
| 1778178019 | 13.33° C | 57% | 1011.3 hPa | 0 mm | - | 619 W/m² | - |
| 1778177719 | 13.33° C | 55% | 1011.3 hPa | 0 mm | - | 311 W/m² | - |
| 1778177419 | 13.33° C | 55% | 1011.3 hPa | 0 mm | - | 411 W/m² | - |
| 1778177119 | 13.33° C | 55% | 1011.3 hPa | 0 mm | - | 559 W/m² | - |
| 1778176819 | 13.33° C | 54% | 1011.2 hPa | 0 mm | - | 430 W/m² | - |
| 1778176519 | 13.89° C | 53% | 1011.2 hPa | 0 mm | - | 309 W/m² | - |
| 1778176220 | 14.44° C | 52% | 1011.2 hPa | 0 mm | - | 632 W/m² | - |
| 1778175920 | 14.44° C | 53% | 1011.3 hPa | 0 mm | - | 941 W/m² | - |
| 1778175620 | 14.44° C | 53% | 1011.3 hPa | 0 mm | - | 959 W/m² | - |
| 1778175319 | 14.44° C | 50% | 1011.4 hPa | 0 mm | - | 858 W/m² | - |
* Rain latest hour (hover to see other rain measurements)
** Current wind speed in m/s (hover to see current wind gust speed)